Ardmore, OK

6:01 PM CDT on September 24, 2017 (GMT -0500)
Ardmore Municipal

Weather History for KADM - October, 2011

Change the Weather History Date:

Wednesday, October 12, 2011

  Actual Average Record
Temperature  
Mean Temperature 72 °F -  
Max Temperature 84 °F 74 °F 89 °F (1999)
Min Temperature 60 °F 53 °F 42 °F (2006)
Cooling Degree Days 7    
Growing Degree Days 22 (Base 50)    
Moisture  
Dew Point 57 °F    
Average Humidity 75    
Maximum Humidity 94    
Minimum Humidity 37    
Precipitation  
Precipitation 0.09 in - - ()
Sea Level Pressure  
Sea Level Pressure 29.80 in    
Wind  
Wind Speed 4 mph (WNW)    
Max Wind Speed 21 mph    
Max Gust Speed 28 mph    
Visibility 10 miles    
Events Rain , Thunderstorm    
Averages and records for this station are not official NWS values.
T = Trace of Precipitation, MM = Missing Value Source: NWS Daily Summary

Daily Weather History Graph

Daily Weather History Graph

Search for Another Location

Airport or City:

Trip Planner

Search our weather history database for the weather conditions in past years. The results will help you decide how hot, cold, wet, or windy it might be!

Date:

Astronomy

Oct. 12, 2011 Rise Set
Actual Time 7:30 AM CDT 6:57 PM CDT
Civil Twilight 7:05 AM CDT 7:23 PM CDT
Nautical Twilight 6:36 AM CDT 7:52 PM CDT
Astronomical Twilight 6:07 AM CDT 8:21 PM CDT
Moon 7:05 PM CDT (10/12) 8:02 AM CDT (10/12)
Length of Visible Light 12h 17m
Length of Day
11h 27m
Full, 100% of the Moon is Illuminated
Oct 12
Full
Oct 19
Last Quarter
Oct 26
New
Nov 2
First Quarter
Nov 10
Full

Hourly Weather History & Observations

Time (CDT) Temp. Heat Index Dew Point Humidity Pressure Visibility Wind Dir Wind Speed Gust Speed Precip Events Conditions
12:15 AM 62.6 °F - 59.0 °F 88% 29.81 in 10.0 mi Calm Calm - N/A   Clear
12:35 AM 60.8 °F - 59.0 °F 94% 29.80 in 10.0 mi Calm Calm - N/A   Clear
12:55 AM 60.8 °F - 59.0 °F 94% 29.80 in 10.0 mi Calm Calm - N/A   Clear
1:15 AM 60.8 °F - 59.0 °F 94% 29.79 in 10.0 mi Calm Calm - N/A   Clear
1:35 AM 62.6 °F - 59.0 °F 88% 29.79 in 10.0 mi Calm Calm - N/A   Clear
1:55 AM 62.6 °F - 59.0 °F 88% 29.79 in 10.0 mi Calm Calm - N/A   Clear
2:15 AM 62.6 °F - 60.8 °F 94% 29.80 in 10.0 mi NW 4.6 mph - N/A Rain , Thunderstorm Light Thunderstorms and Rain
2:35 AM 64.4 °F - 60.8 °F 88% 29.84 in 7.0 mi WNW 20.7 mph 27.6 mph 0.06 in Rain , Thunderstorm Heavy Thunderstorms and Rain
3:15 AM 62.6 °F - 59.0 °F 88% 29.79 in 10.0 mi East 6.9 mph - 0.02 in Rain Light Rain
3:35 AM 62.6 °F - 59.0 °F 88% 29.76 in 10.0 mi SSE 8.1 mph - 0.03 in   Mostly Cloudy
3:55 AM 62.6 °F - 59.0 °F 88% 29.77 in 10.0 mi South 11.5 mph - 0.03 in   Clear
4:15 AM 62.6 °F - 59.0 °F 88% 29.76 in 10.0 mi South 6.9 mph - N/A   Clear
4:35 AM 62.6 °F - 60.8 °F 94% 29.77 in 10.0 mi Calm Calm - N/A   Clear
4:55 AM 62.6 °F - 60.8 °F 94% 29.77 in 10.0 mi South 3.5 mph - N/A   Clear
5:15 AM 62.6 °F - 59.0 °F 88% 29.77 in 10.0 mi SSE 5.8 mph - N/A   Clear
5:35 AM 62.6 °F - 59.0 °F 88% 29.76 in 10.0 mi SSE 3.5 mph - N/A   Clear
5:55 AM 62.6 °F - 59.0 °F 88% 29.77 in 10.0 mi SSE 3.5 mph - N/A   Clear
6:15 AM 62.6 °F - 59.0 °F 88% 29.78 in 10.0 mi Calm Calm - N/A   Clear
6:35 AM 62.6 °F - 59.0 °F 88% 29.79 in 10.0 mi Calm Calm - N/A   Clear
6:55 AM 62.6 °F - 60.8 °F 94% 29.82 in 10.0 mi Calm Calm - N/A   Scattered Clouds
7:55 AM 62.6 °F - 60.8 °F 94% 29.80 in 10.0 mi Calm Calm - N/A   Scattered Clouds
8:55 AM 62.6 °F - 60.8 °F 94% 29.77 in 10.0 mi Calm Calm - N/A   Scattered Clouds
10:55 AM 66.2 °F - 60.8 °F 83% 29.81 in 10.0 mi NNW 8.1 mph - N/A   Clear
11:55 AM 77.0 °F - 60.8 °F 57% 29.81 in 10.0 mi Calm Calm - N/A   Clear
2:55 PM 82.4 °F 81.7 °F 55.4 °F 39% 29.77 in 10.0 mi NW 12.7 mph - N/A   Scattered Clouds
4:55 PM 84.2 °F 83.0 °F 55.4 °F 37% 29.77 in 10.0 mi WNW 9.2 mph - N/A   Clear
5:55 PM 82.4 °F 81.7 °F 55.4 °F 39% 29.77 in 10.0 mi NW 8.1 mph - N/A   Clear
6:55 PM 75.2 °F - 51.8 °F 44% 29.79 in 10.0 mi NW 6.9 mph - N/A   Clear
8:55 PM 68.0 °F - 51.8 °F 56% 29.82 in 10.0 mi WNW 8.1 mph - N/A   Clear
10:15 PM 69.8 °F - 46.4 °F 43% 29.86 in 10.0 mi NNW 9.2 mph - N/A   Clear
10:35 PM 69.8 °F - 46.4 °F 43% 29.87 in 10.0 mi NNW 10.4 mph - N/A   Clear
10:55 PM 68.0 °F - 46.4 °F 46% 29.87 in 10.0 mi NNW 9.2 mph - N/A   Clear
11:15 PM 68.0 °F - 46.4 °F 46% 29.89 in 10.0 mi NNW 10.4 mph - N/A   Clear
11:35 PM 68.0 °F - 46.4 °F 46% 29.89 in 10.0 mi NNW 10.4 mph - N/A   Clear
11:55 PM 66.2 °F - 48.2 °F 52% 29.90 in 10.0 mi NNW 6.9 mph - N/A   Clear